Location: Wald
(31.7579°N, 86.6655°W)
Time: 23:58:43
(UTC+00:00)

Cosmos 1763 Rocket - Pass Details

Date: 14 July 2020
Orbit: 732 x 781 km, 74.0° (Epoch: 12 August)

Event Time Altitude Azimuth Distance (km) Brightness Sun altitude
Rises 09:06:50 0° 344° (NNW) 3,244 7.1 -19.3°
Reaches altitude 10° 09:09:12 10° 345° (NNW) 2,320 6.3 -18.9°
Maximum altitude 09:14:30 83° 74° (ENE) 786 3.5 -18.0°
Drops below altitude 10° 09:19:48 10° 162° (SSE) 2,323 5.8 -17.2°
Sets 09:22:10 0° 163° (SSE) 3,248 6.5 -16.8°
